International Skating Union - Official Site

ISU World Single Distances Championships 2016
February 11-14, 2016

Draw | Lap Times | Index | Classification

Referee: Daniel  CABELDUC  (SWE)
Starter: Jyrki  JÄÄSKELÄINEN  (FIN)
StartTime: EndTime: Air Temp: Ice Temp: Humidity:
19:00 19:55 14.6℃ -6.3℃ 37%
Result 3000m Ladies
Rankings as of Feb 14 2016 2:22PM
Rank: No.: Name: Nation: Time: Behind: Points:
1 224 Martina  Sábliková CZE CZE 4:03.05200m - 19.92 - (19.9)
600m - 50.46 - (30.5)
1000m - 1:21.67 - (31.2)
1400m - 1:53.04 - (31.3)
1800m - 2:25.15 - (32.1)
2200m - 2:57.23 - (32.0)
2600m - 3:29.99 - (32.7)
3000m - 4:03.05 - (33.0)
2 259 Ireen  Wüst NED NED 4:03.13200m - 19.49 - (19.4)
600m - 50.07 - (30.5)
1000m - 1:21.88 - (31.8)
1400m - 1:53.44 - (31.5)
1800m - 2:24.63 - (31.1)
2200m - 2:56.72 - (32.0)
2600m - 3:29.75 - (33.0)
3000m - 4:03.13 - (33.3)
0.08
3 248 Antoinette  de Jong NED NED 4:04.25200m - 19.68 - (19.6)
600m - 50.32 - (30.6)
1000m - 1:21.24 - (30.9)
1400m - 1:52.55 - (31.3)
1800m - 2:24.76 - (32.2)
2200m - 2:57.57 - (32.8)
2600m - 3:30.64 - (33.0)
3000m - 4:04.25 - (33.6)
1.20
4 232 Claudia  Pechstein GER GER 4:05.09200m - 20.12 - (20.1)
600m - 51.40 - (31.2)
1000m - 1:22.97 - (31.5)
1400m - 1:54.90 - (31.9)
1800m - 2:27.05 - (32.1)
2200m - 2:59.53 - (32.4)
2600m - 3:32.01 - (32.4)
3000m - 4:05.09 - (33.0)
2.04
5 251 Marije  Joling NED NED 4:06.62200m - 19.64 - (19.6)
600m - 50.51 - (30.8)
1000m - 1:21.26 - (30.7)
1400m - 1:53.07 - (31.8)
1800m - 2:25.28 - (32.2)
2200m - 2:58.53 - (33.2)
2600m - 3:32.14 - (33.6)
3000m - 4:06.62 - (34.4)
3.57
6 240 Miho  Takagi JPN JPN 4:07.26200m - 19.91 - (19.9)
600m - 51.09 - (31.1)
1000m - 1:22.89 - (31.8)
1400m - 1:54.87 - (31.9)
1800m - 2:27.18 - (32.3)
2200m - 2:59.76 - (32.5)
2600m - 3:32.89 - (33.1)
3000m - 4:07.26 - (34.3)
4.21
7 244 Bo-Reum  Kim KOR KOR 4:08.14200m - 21.21 - (21.2)
600m - 53.98 - (32.7)
1000m - 1:26.45 - (32.4)
1400m - 1:58.16 - (31.7)
1800m - 2:29.92 - (31.7)
2200m - 3:02.19 - (32.2)
2600m - 3:34.93 - (32.7)
3000m - 4:08.14 - (33.2)
5.09
8 269 Olga  Graf RUS RUS 4:09.10200m - 21.01 - (21.0)
600m - 52.27 - (31.2)
1000m - 1:24.00 - (31.7)
1400m - 1:56.31 - (32.3)
1800m - 2:28.97 - (32.6)
2200m - 3:01.72 - (32.7)
2600m - 3:35.09 - (33.3)
3000m - 4:09.10 - (34.0)
6.05
9 231 Bente  Kraus GER GER 4:09.19200m - 20.95 - (20.9)
600m - 52.85 - (31.9)
1000m - 1:24.76 - (31.9)
1400m - 1:57.02 - (32.2)
1800m - 2:29.63 - (32.6)
2200m - 3:02.57 - (32.9)
2600m - 3:35.82 - (33.2)
3000m - 4:09.19 - (33.3)
6.14
10 214 Isabelle  Weidemann CAN CAN 4:09.72200m - 20.86 - (20.8)
600m - 53.19 - (32.3)
1000m - 1:25.49 - (32.3)
1400m - 1:57.64 - (32.1)
1800m - 2:29.97 - (32.3)
2200m - 3:02.44 - (32.4)
2600m - 3:35.55 - (33.1)
3000m - 4:09.72 - (34.1)
6.67
11 270 Anna  Yurakova RUS RUS 4:10.20200m - 20.83 - (20.8)
600m - 52.43 - (31.6)
1000m - 1:24.12 - (31.6)
1400m - 1:56.58 - (32.4)
1800m - 2:29.28 - (32.7)
2200m - 3:02.25 - (32.9)
2600m - 3:35.86 - (33.6)
3000m - 4:10.20 - (34.3)
7.15
12 274 Natalya  Voronina RUS RUS 4:10.57200m - 19.82 - (19.8)
600m - 50.87 - (31.0)
1000m - 1:22.52 - (31.6)
1400m - 1:55.02 - (32.5)
1800m - 2:27.99 - (32.9)
2200m - 3:01.69 - (33.7)
2600m - 3:35.48 - (33.7)
3000m - 4:10.57 - (35.0)
7.52
13 266 Luiza  Zlotkowska POL POL 4:11.52200m - 20.03 - (20.0)
600m - 52.18 - (32.1)
1000m - 1:24.96 - (32.7)
1400m - 1:57.25 - (32.2)
1800m - 2:29.75 - (32.5)
2200m - 3:02.98 - (33.2)
2600m - 3:37.11 - (34.1)
3000m - 4:11.52 - (34.4)
8.47
14 239 Misaki  Oshigiri JPN JPN 4:11.84200m - 19.52 - (19.5)
600m - 50.31 - (30.7)
1000m - 1:22.37 - (32.0)
1400m - 1:55.07 - (32.7)
1800m - 2:28.55 - (33.4)
2200m - 3:02.28 - (33.7)
2600m - 3:36.73 - (34.4)
3000m - 4:11.84 - (35.1)
8.79
15 234 Francesca  Lollobrigida ITA ITA 4:13.28200m - 20.16 - (20.1)
600m - 51.84 - (31.6)
1000m - 1:24.52 - (32.6)
1400m - 1:57.37 - (32.8)
1800m - 2:30.48 - (33.1)
2200m - 3:04.35 - (33.8)
2600m - 3:38.56 - (34.2)
3000m - 4:13.28 - (34.7)
10.23
16 238 Fuyo  Matsuoka JPN JPN 4:13.65200m - 20.93 - (20.9)
600m - 52.59 - (31.6)
1000m - 1:24.73 - (32.1)
1400m - 1:57.50 - (32.7)
1800m - 2:30.72 - (33.2)
2200m - 3:04.47 - (33.7)
2600m - 3:38.62 - (34.1)
3000m - 4:13.65 - (35.0)
10.60
17 206 Ivanie  Blondin CAN CAN 4:15.52200m - 20.12 - (20.1)
600m - 51.14 - (31.0)
1000m - 1:22.94 - (31.8)
1400m - 1:55.46 - (32.5)
1800m - 2:28.49 - (33.0)
2200m - 3:02.48 - (33.9)
2600m - 3:37.90 - (35.4)
3000m - 4:15.52 - (37.6)
12.47
18 220 Xin  Zhao CHN CHN 4:16.80200m - 20.96 - (20.9)
600m - 52.57 - (31.6)
1000m - 1:24.79 - (32.2)
1400m - 1:57.70 - (32.9)
1800m - 2:31.22 - (33.5)
2200m - 3:05.76 - (34.5)
2600m - 3:41.14 - (35.3)
3000m - 4:16.80 - (35.6)
13.75
19 205 Marina  Zuyeva BLR BLR 4:18.16200m - 20.33 - (20.3)
600m - 53.05 - (32.7)
1000m - 1:26.38 - (33.3)
1400m - 1:59.55 - (33.1)
1800m - 2:33.30 - (33.7)
2200m - 3:07.86 - (34.5)
2600m - 3:43.02 - (35.1)
3000m - 4:18.16 - (35.1)
15.11
20 228 Stephanie  Beckert GER GER 4:20.23200m - 21.76 - (21.7)
600m - 55.04 - (33.2)
1000m - 1:28.61 - (33.5)
1400m - 2:02.21 - (33.6)
1800m - 2:36.39 - (34.1)
2200m - 3:10.77 - (34.3)
2600m - 3:45.44 - (34.6)
3000m - 4:20.23 - (34.7)
17.18